Theta_e
350 349 344 340 342 332 345 346 350 351 351 347 352 351 352 352 352 352 350 353 352 351 354 354 354 352 352 348 349 348 347 347 346 345 343 343 343 344 339 339 339 341 346
352 352 349 344 342 346 339 347 348 349 351 354 353 352 350 351 353 353 353 349 356 355 353 352 354 354 349 346 351 350 349 348 348 346 347 348 349 348 348 347 347 349 348
353 353 352 350 344 344 342 341 346 344 343 351 354 353 351 349 352 354 353 353 353 353 353 354 354 354 354 353 353 351 351 352 355 355 354 352 350 350 348 348 348 351 352
352 352 353 352 351 347 345 338 340 340 342 344 348 352 350 351 351 352 354 353 353 353 354 354 354 355 355 354 353 353 353 351 353 353 353 352 349 347 348 350 352 352 353
350 351 351 352 349 349 345 346 338 341 342 344 344 348 348 352 351 350 353 354 354 354 354 354 354 354 355 356 357 356 356 356 356 353 351 349 348 349 353 353 352 354 352
351 350 351 351 350 346 341 341 340 342 343 344 345 345 347 352 349 347 348 351 352 353 354 354 353 354 354 352 348 344 346 349 349 354 352 350 350 351 353 353 352 350 353
353 352 352 353 350 348 343 341 341 343 344 344 345 345 345 346 349 347 345 346 350 348 349 349 351 352 352 351 348 344 342 342 343 340 340 339 339 339 340 343 352 356 359
354 356 353 354 353 350 351 345 343 343 344 344 344 344 345 345 343 343 342 342 343 340 346 346 343 341 344 352 354 355 354 350 339 346 350 347 346 347 353 358 358 358 357
357 355 357 355 357 354 352 350 345 345 345 345 345 345 344 343 344 341 343 344 343 339 336 334 335 337 334 332 335 337 336 336 344 345 347 349 352 356 358 360 358 357 359
357 357 358 357 358 356 351 350 349 346 346 345 345 345 345 344 344 344 342 344 350 348 343 336 333 332 332 332 333 336 339 342 348 350 354 359 360 361 359 359 360 359 359
357 359 359 358 358 356 355 353 350 347 356 350 355 352 349 346 345 342 340 342 345 350 350 347 349 348 346 345 344 344 342 342 347 357 360 362 362 361 360 359 359 359 360
357 358 359 360 359 360 359 358 358 359 357 359 355 359 359 350 345 341 338 337 338 340 345 345 346 347 348 350 354 357 357 357 357 358 357 361 358 357 356 358 358 356 356
356 358 358 360 360 359 360 360 361 359 360 359 361 359 358 356 358 353 341 335 335 338 339 349 348 349 354 359 361 361 359 359 360 360 359 358 361 361 358 356 355 354 351
358 358 359 360 360 359 363 364 361 360 361 359 358 357 355 352 350 355 354 343 336 338 340 343 348 354 358 361 362 361 359 360 360 359 360 361 361 359 357 353 352 350 344
356 359 360 360 361 361 363 362 361 360 359 358 354 351 349 350 350 352 356 361 355 348 349 351 354 356 359 360 362 361 360 360 359 361 362 360 355 353 353 351 346 343 342
360 360 361 360 362 361 362 361 360 360 360 360 358 358 359 357 358 359 360 364 365 362 356 359 361 360 360 362 364 364 360 360 361 362 359 353 351 350 347 344 342 341 342
360 362 361 361 361 361 360 360 361 360 359 360 360 360 360 363 362 362 363 362 363 364 361 360 362 364 363 361 360 360 362 360 357 354 348 347 346 345 342 341 341 341 341
360 359 360 362 361 362 363 362 360 357 357 358 359 359 357 359 358 359 359 356 361 362 361 358 360 361 361 360 359 356 351 347 346 346 346 344 342 342 342 342 341 340 339
356 359 360 360 360 359 358 357 351 354 354 351 344 346 352 354 356 356 358 359 359 359 361 358 358 358 355 353 351 347 347 344 343 340 336 336 339 338 338 338 337 335 335
350 355 354 355 354 343 337 337 337 338 338 339 340 339 340 349 355 357 360 361 359 356 351 347 345 345 346 344 344 341 338 336 334 333 333 333 334 336 337 335 333 333 333
346 348 350 349 349 345 342 338 340 334 334 335 335 335 344 353 356 351 349 351 350 348 344 341 341 344 342 337 335 333 331 330 330 331 330 331 332 334 333 331 332 332 336
342 342 345 347 349 348 347 340 338 336 334 337 342 345 351 348 344 340 340 343 341 340 337 338 334 332 331 331 330 328 327 327 327 326 327 327 328 329 329 328 329 330 331
340 340 338 339 345 347 346 347 347 347 349 348 347 343 338 337 335 333 331 335 337 337 336 335 334 332 330 328 324 321 321 322 323 321 321 321 324 326 326 325 326 327 328
334 338 337 335 334 339 339 341 342 341 340 341 337 337 336 335 335 334 334 333 333 332 331 329 323 321 320 315 314 318 318 317 315 314 313 314 321 321 321 321 322 325 326
330 333 332 333 331 335 334 340 337 332 330 332 332 332 333 332 332 332 330 328 327 322 320 316 314 315 317 317 315 313 312 311 309 307 305 304 317 318 318 318 319 320 321
329 329 328 330 334 335 334 334 337 337 334 329 328 327 326 326 326 328 324 322 316 313 312 307 306 304 306 309 308 306 304 303 300 299 299 306 310 312 312 311 315 316 317
Wind_Speed
43 43 43 42 37 39 35 34 31 24 22 23 18 17 18 18 18 20 18 14 15 14 15 12 14 14 10 9 9 10 10 10 12 12 11 12 15 22 25 23 21 21 21
44 45 45 43 41 36 41 39 32 32 27 23 21 21 19 20 19 20 19 17 17 14 15 15 15 13 15 15 15 14 13 13 14 19 18 19 18 18 23 27 29 20 19
41 43 42 41 44 42 40 42 37 35 33 26 25 24 22 23 23 22 21 20 19 18 18 19 18 18 19 15 16 15 14 15 15 16 19 18 20 19 20 22 23 22 23
37 39 43 45 45 43 42 42 41 38 36 33 29 27 25 23 23 23 22 22 21 20 20 20 20 21 21 19 18 19 18 18 18 19 20 21 21 20 20 22 20 19 24
42 41 45 47 47 45 43 43 43 40 38 35 32 31 29 25 23 26 26 24 23 22 22 22 22 23 22 23 19 18 18 19 18 19 21 21 22 21 19 23 29 27 27
44 46 45 45 46 46 46 45 44 43 40 37 36 34 33 28 26 27 26 26 25 24 24 24 24 24 25 26 27 26 25 26 27 24 24 26 29 28 25 26 31 36 36
44 45 43 44 47 48 47 46 45 45 42 41 39 37 37 36 29 29 30 30 26 26 26 26 23 20 22 23 23 24 26 28 31 32 35 36 37 35 36 35 27 28 29
46 42 45 44 47 48 47 49 48 45 44 43 42 40 39 38 34 32 31 31 31 31 29 27 27 27 26 22 21 22 25 27 28 27 31 35 35 30 28 29 32 32 32
43 48 47 48 46 47 49 50 50 47 45 45 44 42 42 41 36 33 32 32 33 35 34 34 34 35 34 32 32 34 35 37 32 32 32 31 28 26 26 27 31 28 30
48 50 49 48 47 49 51 51 50 49 48 46 46 45 44 42 39 37 35 34 31 31 33 35 37 37 37 36 37 37 39 37 30 26 25 24 26 26 23 23 25 28 27
46 42 43 46 47 48 46 47 49 50 40 46 39 43 44 43 42 40 39 39 36 29 29 28 27 27 28 27 28 30 34 32 31 24 23 21 19 19 20 22 24 26 30
37 40 41 41 41 37 40 41 40 40 40 37 40 35 33 41 41 40 40 39 38 38 33 25 24 26 27 28 29 28 25 24 25 25 21 20 23 26 28 27 27 27 25
38 40 39 37 38 35 38 39 35 35 33 34 30 32 31 30 31 36 38 39 37 38 36 26 29 30 29 30 30 28 24 25 25 24 25 27 27 26 25 24 22 16 16
36 37 35 36 36 35 30 29 28 28 28 27 28 27 28 29 29 25 30 33 35 36 37 37 34 33 31 24 24 26 25 24 22 25 26 26 29 25 19 13 11 12 14
33 34 35 32 32 33 26 27 26 26 27 27 25 25 25 27 28 27 26 29 32 36 33 32 29 27 27 25 24 24 26 24 25 25 26 21 17 12 11 11 13 12 12
31 32 32 30 30 31 33 33 31 31 30 28 28 26 22 28 28 30 31 28 21 17 23 23 21 24 24 22 23 22 24 25 25 19 17 14 9 10 12 11 12 11 11
30 30 30 31 31 33 32 28 33 33 28 33 31 32 26 18 26 22 27 30 29 26 19 17 22 22 24 23 22 24 21 20 14 13 10 7 10 9 11 10 10 11 11
25 28 30 27 35 31 30 27 24 21 21 22 32 31 27 25 23 28 28 26 27 29 26 24 20 20 20 20 17 15 9 10 13 13 13 9 8 9 10 10 10 11 11
23 23 24 25 26 26 26 24 19 22 21 20 18 16 20 29 23 24 21 22 21 21 22 20 16 17 16 16 17 15 16 18 15 13 12 7 10 11 10 11 11 13 14
11 21 17 25 34 27 20 17 16 19 20 27 28 27 26 25 22 25 24 26 21 17 17 12 15 17 16 15 13 12 11 13 12 10 10 10 10 11 10 11 13 14 16
17 7 11 16 14 19 15 19 16 15 12 19 26 33 18 17 20 19 20 20 21 19 15 14 13 12 11 10 8 7 7 7 7 6 6 7 8 9 9 10 12 13 14
15 16 5 13 14 19 22 19 16 27 28 26 25 18 20 19 16 14 16 17 15 16 14 12 9 8 10 8 6 4 2 2 2 3 4 4 6 7 9 13 12 11 11
9 7 7 7 11 17 18 19 24 24 26 20 19 24 26 20 18 16 14 14 13 12 11 9 9 8 7 6 3 4 7 8 6 5 5 4 5 6 8 12 13 13 14
4 6 8 9 10 8 10 12 13 14 15 21 26 24 25 21 18 14 11 11 10 8 7 7 6 5 5 4 7 8 5 5 5 5 4 3 5 7 9 11 12 14 17
4 3 6 9 8 8 7 4 8 13 15 18 20 19 17 15 14 14 12 9 7 5 5 4 3 5 9 10 6 5 6 6 6 7 8 5 5 8 8 10 12 14 15
10 4 5 6 7 6 6 6 8 11 12 13 16 15 15 15 15 15 14 12 11 8 6 6 5 4 4 5 5 5 7 8 7 5 3 6 6 7 8 9 10 12 14
Wind_Direction
209 210 211 216 216 217 208 215 211 215 218 227 216 222 220 219 219 221 206 220 230 219 211 230 245 227 225 239 252 251 251 258 269 277 278 281 285 292 297 300 296 285 286
208 207 212 212 211 215 215 214 220 221 221 219 225 223 221 216 219 223 223 217 219 226 230 230 237 244 252 229 228 245 249 253 264 274 278 283 289 298 301 307 311 309 292
206 208 208 209 212 210 218 219 222 228 231 227 226 222 224 216 218 224 228 225 222 229 231 236 238 240 240 238 248 253 263 279 278 280 287 290 291 293 295 299 304 302 304
207 206 208 210 210 215 213 222 223 226 228 231 228 227 229 223 221 222 227 229 229 230 234 238 240 240 245 251 252 251 257 259 267 274 283 291 295 296 294 297 300 302 300
206 205 208 210 213 211 214 218 225 225 225 227 230 229 234 227 225 224 221 229 232 231 232 240 242 239 241 245 245 258 261 266 270 276 282 287 291 295 294 296 299 302 298
206 206 207 209 209 211 215 217 223 224 224 227 229 231 232 228 229 229 233 228 231 237 237 238 238 241 253 255 256 257 252 256 263 269 276 279 280 288 292 291 289 293 299
209 207 206 208 211 211 215 218 221 224 227 228 229 232 235 238 228 231 234 232 233 242 242 244 244 246 259 267 274 270 265 262 266 274 276 278 283 288 293 295 294 293 294
209 210 207 208 213 213 212 218 223 225 226 228 230 231 235 239 239 236 238 240 242 239 240 249 255 248 240 243 258 265 275 281 286 286 286 290 293 300 299 298 295 294 296
210 209 210 208 210 212 214 217 222 224 226 230 232 233 234 238 241 240 239 241 244 249 251 251 252 257 263 265 262 265 267 269 271 274 277 284 290 290 290 290 291 294 298
209 211 209 208 209 213 218 218 220 223 225 225 230 233 236 239 240 243 243 240 241 247 254 256 258 261 263 265 267 270 273 276 279 275 272 275 279 285 288 283 286 290 298
209 209 209 208 210 215 216 218 221 224 218 229 225 231 235 237 239 242 242 242 241 243 246 249 258 269 273 273 271 270 272 276 270 269 272 272 278 282 284 286 291 294 299
206 205 208 209 209 214 211 214 215 217 217 218 225 224 229 238 241 242 244 242 244 244 238 246 255 260 265 269 272 273 271 269 266 269 272 275 275 285 289 300 291 291 294
199 201 204 205 206 205 213 212 210 214 213 217 223 223 227 234 239 242 244 244 244 245 245 242 242 248 254 258 263 271 269 263 264 265 273 283 286 291 299 296 298 303 306
194 197 198 201 202 198 211 210 207 208 211 215 219 226 230 232 234 239 249 248 243 241 241 244 241 239 245 247 252 262 270 265 259 271 275 279 287 303 294 296 294 292 282
198 194 193 196 197 196 197 203 203 206 211 214 219 224 227 231 233 233 234 248 245 241 242 241 241 243 248 251 256 256 259 261 268 272 277 280 290 283 293 291 274 279 279
193 191 192 188 192 191 197 195 192 206 211 211 213 216 222 229 233 228 227 231 240 239 230 226 233 233 239 238 247 252 262 269 271 266 268 273 275 274 273 270 270 276 284
188 188 187 185 184 190 193 196 195 204 205 208 214 215 219 222 226 235 220 230 232 235 226 222 225 229 240 248 255 259 259 262 249 255 273 264 264 268 273 279 277 279 285
185 185 183 181 170 181 185 185 182 188 191 198 213 219 220 235 240 233 236 243 230 226 234 235 236 240 245 250 250 245 226 230 237 223 228 246 263 268 268 269 268 275 283
176 168 172 168 171 177 182 200 203 209 209 211 245 237 240 236 255 264 250 239 232 225 228 230 224 230 232 234 225 220 221 224 236 258 265 255 248 251 253 259 264 278 281
140 153 160 175 165 165 175 163 197 218 217 215 238 251 248 270 252 248 225 212 204 183 177 168 199 209 222 217 226 228 238 247 258 262 267 262 264 265 265 273 281 288 293
51 154 173 170 159 172 171 150 183 203 230 244 221 228 256 233 221 199 215 198 190 187 198 198 207 213 227 228 237 255 260 254 266 274 274 269 267 269 270 268 280 288 287
50 46 118 171 178 170 173 203 247 253 236 237 231 253 224 194 192 182 195 205 204 197 195 195 183 182 205 220 229 221 206 192 234 246 258 276 286 289 293 292 284 280 286
49 81 62 73 142 165 179 188 196 212 214 220 221 190 171 171 189 196 198 192 194 192 199 211 224 230 237 252 223 197 206 222 239 255 267 290 320 308 297 304 301 297 293
88 62 86 97 97 111 142 165 183 197 184 175 179 181 192 200 200 191 195 188 190 192 196 198 170 175 170 168 190 235 230 233 242 263 287 306 323 313 311 313 310 292 288
126 156 148 123 118 113 99 141 181 170 176 175 176 182 194 192 186 186 180 168 166 141 146 145 154 183 205 219 227 230 239 249 275 290 298 295 315 320 325 314 315 316 314
149 198 158 130 152 133 134 144 181 197 191 178 172 174 178 181 179 177 163 161 137 167 150 128 130 143 230 231 251 276 290 292 297 306 323 11 322 322 304 320 323 315 316